User: anonymous   Login
Location: Naloco
(16.5478°S, 37.1017°E)
Time: 19:28:20
(UTC+00:00)
Language:

Mugunghwa Rocket - Orbit

View from above orbital plane
View from above orbital plane
View from above satellite
View from above satellite

Ground track
Ground track

The orbit data is extracted from the following two-line orbital elements,

1 23640U 95041B   20294.97511048 +.00000097 +00000-0 -16911-4 0  9995
2 23640 026.6747 046.5752 0289356 131.7442 230.8186 13.28034454224654
Epoch (UTC): 20 October 2020 23:24:09
Eccentricity: 0.0289356
inclination: 26.6747°
perigee height: 936 km
apogee height: 1372 km
right ascension of ascending node: 46.5752°
argument of perigee: 131.7442°
revolutions per day: 13.28034454
mean anomaly at epoch: 230.8186°
orbit number at epoch: 22465

The dashed part of the orbit path shows where the satellite is in the earth's shadow,  

DLR